NOAA 16 DEB, 41153

Orbit data source: Space-Track

NOAA 16 DEB, 41153 is space debris in SSO originally from a launch on Thu, 21 Sep 2000 UTC launched from the Air Force Western Test Range (AFWTR). Debris objects in space refer to the collection of defunct objects orbiting the Earth. Examples of debris include non-operational satellites, rocket bodies, and fragments generated from explosions, collisions, or faulty payload assembly.

Loading next visibility...
Identifier
41153, 2000-055CL
Orbit
SSO
Country
Flag of USUS
Related business
Manufacturer
Unknown
Mission
Spacecraft
Bus & Motor
Unknown
Mass
Unknown
Launch date (UTC)
2000-09-21 (25 years ago)
Launch vehicle
Unknown
Launch site
Air Force Western Test Range (AFWTR)
Object type
Payload
Rocket body
Debris
Shape & HBR
Unknown
Radar Cross Section
Small (<0.1 m²)

Expand to show TLE details & history
Last TLE update: 14 hours ago

TLE from 14 hours ago
0 NOAA 16 DEB
1 41153U 00055CL  25258.53675230  .00005287  00000-0  18820-2 0  9990
2 41153  98.7811   3.9633 0018018 227.7353 132.2304 14.34622517507272
Epoch: 2025-09-15T12:52Z
TLE epoch observation values (Epoch: 2025-09-15T12:52:55.398Z)
Latitude
-0.00004°
Longitude
175.99249°
Altitude
787.932 km
Speed
7.455 km/s
True Right ascension
00h 15m 51s
True Declination
0° 00' 00"
Sunlit
Object was in full shadow at epoch
Visualization orbit readout
Latitude
Unknown
Longitude
Unknown
Altitude
Unknown
Speed
Unknown
Apparent Right ascension
Unknown
Apparent Declination
Unknown
Sunlit
N/A
Visualization observer readout
Local Sidereal Time
19:49:21
Azimuth
Unknown
Elevation
Unknown
Doppler factor
Unknown
Orbital elements
Apogee altitude
786.349 km
Perigee altitude
760.578 km
Semi-major axis
7,151.601 km
Eccentricity
0.0018
Inclination
98.7811°
RAAN
3.9633°
Arg. of periapsis
227.7353°
True anomaly
132.38305°
Mean anomaly
132.2304°
Eccentric anomaly
132.30675°
Mean motion
3.58871 °/min
Orbital period
100.31 mins
BSTAR
0.001882
Loading maneuver chart data...
Computing Atmospheric mass density...
Loading historical data...
Loading historical data...
Loading historical data...
Loading historical data...
Loading historical data...
Loading historical data...
Loading historical data...

Documentation

Showing up to 5 results
|